Volver al catálogo

WILDFIRE 2

ActivoCienciaPO
NORAD 57767·PAYLOAD·🇺🇸 United States

Lanzado Sep 2, 2023 desde Vandenberg Space Force Base

Loading…

Próximos Pases (próximas 24 horas)

TLE

ActualizadoSource: Space-Track

Época: Sep 14, 2026, 12:39 UTC

1 57767U 23133L   26257.52718869  .00000059  00000-0  42354-4 0  9998
2 57767  80.9929 281.6175 0006154 131.3706 228.7980 13.85502985153379

Sigue WILDFIRE 2 en tiempo real con AllMySat

Download on the App Store